Wind_Speed
11 10 11 10 9 10 10 12 14 16 17 18 18 20 22 23 26 27 27 28 29 30 30 30 30 30 28 27 26 25 23 22 21 20 19 19 20 20 21 21 23 25 27 28 28 28 29 31 32 33 32 33 34 34 35 35 35 35 35 34 34 34 33 28 18 14 18 25 28 29 32 37 39 40 42 42 42 43 42 42 42 42 42 41 40
11 10 10 10 10 10 10 10 13 15 16 17 17 18 20 21 23 24 25 26 28 29 30 30 31 32 32 32 30 29 27 25 24 23 22 22 22 21 22 23 24 25 26 27 28 28 29 31 32 32 31 33 34 34 34 35 34 35 36 34 35 35 33 30 24 16 15 22 27 27 29 35 38 39 41 43 43 44 44 44 44 44 44 43 42
10 10 11 11 11 12 12 12 15 17 18 19 19 19 21 23 25 25 25 26 27 28 28 28 30 31 32 33 33 33 32 30 28 26 25 25 25 25 24 23 25 26 26 28 28 28 29 30 31 31 30 32 34 33 33 34 34 35 36 35 35 36 35 33 29 22 17 19 25 28 29 33 38 40 41 43 43 43 45 45 45 46 46 45 43
10 12 13 14 15 16 18 19 21 23 24 25 25 24 24 26 28 27 27 27 28 28 28 27 27 28 29 30 31 33 33 34 33 31 29 27 27 27 27 26 25 26 27 28 28 28 28 30 31 30 30 31 33 32 32 33 34 34 35 36 35 36 35 34 34 30 23 19 22 27 30 33 37 39 40 41 42 43 44 44 45 46 46 46 45
12 14 16 18 19 21 23 25 27 28 29 29 30 29 29 30 30 30 29 30 30 30 29 28 28 28 28 28 29 30 31 31 33 34 34 32 31 30 29 28 28 27 27 27 28 28 29 30 31 29 29 31 32 31 30 31 33 34 35 35 34 35 34 34 36 35 29 24 23 25 28 31 33 35 39 40 40 40 40 41 43 45 44 44 44
14 16 19 21 23 25 27 30 32 32 32 32 32 32 32 33 33 33 32 33 33 33 32 31 30 30 30 29 29 30 30 29 30 32 33 34 34 34 32 31 30 29 29 28 28 28 29 30 31 30 29 31 31 30 29 30 31 33 34 34 33 33 33 34 35 35 33 31 28 24 26 30 30 30 35 40 40 39 39 38 38 40 41 43 44
16 18 20 22 23 25 28 31 33 34 34 34 34 34 34 34 35 35 35 34 35 35 34 34 33 33 33 32 32 31 31 30 31 31 31 31 33 34 35 35 34 33 32 31 30 30 30 30 31 31 30 31 32 31 30 30 31 32 33 33 32 32 32 33 33 32 32 31 29 26 27 30 31 30 33 38 39 38 38 34 32 35 40 43 45
17 18 19 21 22 23 26 30 33 34 35 35 36 36 36 36 36 36 36 36 36 36 36 36 36 36 34 34 33 32 31 32 33 32 31 31 31 32 34 35 35 36 36 35 34 33 33 32 32 32 32 32 32 32 31 31 30 31 32 31 31 31 32 32 31 30 30 29 27 26 26 27 30 28 27 30 32 33 34 34 32 36 41 43 44
16 16 17 18 20 23 27 31 33 34 35 35 36 37 37 37 37 37 37 37 37 38 37 37 38 37 36 35 34 33 32 33 34 32 31 32 32 33 33 34 34 35 37 37 37 36 35 35 34 33 33 33 33 32 32 32 31 32 31 29 29 30 31 30 29 28 28 26 26 24 21 23 28 28 26 31 36 35 34 34 32 34 37 38 40
12 13 14 17 21 25 29 33 34 34 34 35 36 36 37 38 38 38 39 39 39 39 39 39 38 37 37 37 37 36 35 36 36 34 31 30 32 33 34 35 35 35 35 37 38 39 38 37 36 36 35 35 34 34 33 33 33 35 34 31 29 29 29 29 28 28 26 24 24 23 18 19 27 31 31 36 39 34 32 34 32 28 27 26 30
10 13 17 21 25 28 31 32 32 32 32 33 34 35 35 36 37 38 39 40 40 40 39 39 39 38 38 39 39 40 40 41 41 38 32 29 30 32 34 35 36 35 35 36 37 39 39 39 38 37 37 36 36 35 34 34 34 35 36 36 34 33 32 30 28 28 27 24 25 25 21 21 28 32 33 34 34 33 34 36 33 27 25 22 19
16 20 23 26 28 30 30 30 30 30 30 30 31 32 33 34 36 37 38 39 40 39 39 39 39 38 38 38 40 41 43 45 45 42 36 32 31 33 34 35 36 36 37 37 38 39 38 38 38 38 37 37 37 36 35 35 35 35 35 36 37 38 38 36 33 31 28 26 26 26 26 28 28 30 32 32 31 33 34 33 34 34 31 27 22
21 24 26 27 28 28 27 27 28 29 29 29 30 31 32 33 35 36 37 37 37 37 38 38 38 39 38 38 39 41 43 46 46 42 38 35 34 33 34 35 36 37 38 39 40 40 39 38 37 37 38 37 36 35 36 36 36 36 35 35 36 38 40 42 41 38 34 31 28 29 32 32 29 28 32 34 33 32 31 32 35 36 31 30 33
22 24 26 26 25 25 25 26 27 29 29 30 31 32 32 33 34 33 33 34 34 35 37 38 38 39 39 39 39 41 43 45 43 39 37 36 35 35 35 36 37 38 39 39 39 39 40 39 38 39 39 38 37 35 35 36 36 36 36 36 37 38 39 41 43 43 42 38 34 36 38 36 33 30 30 33 37 37 36 36 36 35 35 37 38
22 23 24 24 23 23 24 25 27 28 29 30 32 32 32 32 32 31 31 32 34 35 36 37 38 40 40 39 40 42 45 44 41 38 38 38 37 37 37 37 38 38 40 40 40 40 40 40 39 40 40 40 39 38 37 36 36 36 36 36 38 39 39 40 42 43 44 43 42 44 45 42 38 35 30 30 38 42 42 43 41 39 40 39 35
21 21 21 21 22 22 23 25 27 29 30 30 31 31 30 30 31 32 33 35 35 35 36 37 38 39 40 40 39 42 46 45 41 40 40 39 39 38 38 38 38 39 41 41 41 41 40 40 40 40 41 42 42 42 41 39 36 36 36 37 38 38 39 41 42 42 43 43 44 47 49 47 42 39 35 31 34 39 40 39 38 36 33 28 26
18 18 19 20 21 22 23 26 29 31 31 30 30 30 30 31 33 32 33 35 35 34 35 36 37 38 39 40 39 41 45 44 40 39 40 39 38 38 37 38 38 39 42 43 42 43 43 42 41 42 42 44 44 44 43 40 37 37 37 37 37 37 39 41 42 41 41 42 44 46 49 48 45 42 40 36 34 35 35 33 33 34 28 18 17
16 17 19 20 22 23 25 27 29 31 31 30 31 32 32 33 33 31 31 33 35 34 35 37 39 38 38 39 38 39 43 43 39 38 40 40 38 38 37 38 38 39 41 43 44 44 44 43 42 42 43 44 44 44 42 39 38 37 37 37 36 35 38 41 40 37 37 39 42 44 46 46 45 42 41 40 37 36 36 37 36 34 27 20 18
17 19 21 22 23 25 26 27 28 29 31 31 31 32 33 33 32 32 32 33 35 37 37 38 40 39 36 37 37 37 41 42 39 37 39 38 37 37 37 36 36 37 37 38 40 42 43 45 45 44 44 46 45 45 43 41 40 39 38 37 34 34 39 42 39 36 35 36 39 42 43 44 43 42 41 41 39 38 41 43 40 35 31 30 26
19 21 22 24 25 25 26 27 28 28 30 32 32 32 32 33 33 33 34 35 36 38 38 37 39 39 36 36 37 37 39 41 38 35 36 36 34 34 35 34 33 35 35 36 39 42 44 46 47 45 45 46 47 47 46 45 44 43 41 38 35 37 42 43 39 36 35 36 38 38 39 39 39 39 39 41 41 40 42 43 42 39 37 35 30
21 22 24 25 25 25 25 26 27 28 29 31 32 32 32 33 34 34 35 36 36 36 37 37 38 39 37 36 37 36 36 37 36 34 34 34 33 32 33 33 33 35 38 38 39 40 41 42 43 44 44 44 45 46 46 45 45 45 44 42 42 44 45 42 38 35 34 36 36 35 35 35 33 33 36 38 41 42 42 42 43 43 41 38 33
22 24 25 26 26 26 26 26 27 29 30 30 31 32 33 33 33 34 35 35 35 35 37 37 37 37 37 35 35 35 34 34 35 34 33 33 32 32 33 33 33 34 36 37 36 36 37 39 40 41 42 43 44 45 46 46 45 45 46 47 48 49 47 42 37 33 32 33 33 31 31 31 30 31 33 35 38 41 42 42 43 43 44 44 40
24 26 27 27 27 27 27 28 28 29 30 30 30 32 34 33 33 33 33 34 34 34 35 36 35 35 36 35 33 34 35 34 33 33 33 33 33 33 33 34 34 34 35 36 36 36 37 38 40 40 41 41 42 44 45 46 46 46 46 46 46 48 47 42 36 32 31 32 30 29 29 29 29 30 32 35 37 39 40 41 42 42 42 44 44
26 27 27 28 28 28 28 29 29 29 30 31 32 33 33 32 32 32 32 32 32 32 33 34 33 32 33 33 33 34 35 35 34 33 34 35 35 35 36 37 37 36 37 38 38 38 38 40 41 43 43 43 43 44 45 46 46 47 46 45 45 45 43 39 35 32 31 30 28 27 29 30 31 32 34 36 36 36 37 38 38 39 39 40 42
27 27 28 28 28 29 29 29 29 30 31 32 31 32 31 30 30 31 31 30 30 31 32 32 32 31 32 32 34 35 36 36 36 35 36 37 38 38 38 38 38 38 39 40 41 41 42 43 45 45 45 44 45 45 45 45 46 46 46 46 44 43 40 36 34 31 29 28 27 28 30 32 35 36 36 34 31 30 32 33 34 35 35 35 36
27 27 28 28 29 29 29 29 29 31 32 31 29 30 30 29 29 30 30 29 30 30 31 31 31 32 32 33 34 36 36 36 37 37 36 37 38 38 38 38 38 39 40 42 42 43 44 44 43 42 41 41 41 42 43 44 45 45 45 45 45 42 39 35 32 30 29 29 29 30 33 35 35 35 32 28 27 29 30 31 31 31 33 33 31
26 27 28 29 29 28 28 29 31 31 31 30 29 30 29 27 28 29 29 29 29 29 29 29 29 28 28 30 33 34 34 34 35 34 34 35 36 37 37 37 38 39 40 42 42 42 43 42 41 40 40 40 41 42 42 41 41 41 41 41 41 40 38 36 35 33 31 31 31 32 34 33 29 28 28 27 28 30 30 30 30 29 30 31 27
26 28 28 29 29 27 27 29 31 31 30 30 29 30 30 28 28 29 30 30 29 29 28 28 29 29 27 29 31 30 28 30 32 33 33 34 35 35 33 33 34 36 37 40 41 42 41 40 38 38 37 36 36 36 38 38 36 38 38 38 38 38 38 37 36 34 33 33 31 30 29 28 26 27 28 28 28 29 29 31 31 29 29 29 24
26 28 28 28 27 27 28 30 30 30 31 30 29 30 30 28 27 30 32 32 29 30 32 31 31 32 31 31 30 28 26 29 33 36 37 38 37 36 33 32 32 33 34 36 39 38 36 33 31 30 29 28 29 30 33 35 33 31 32 34 34 34 34 34 32 32 32 32 30 28 27 26 26 27 27 27 28 29 30 31 30 28 28 28 23
26 27 27 27 28 28 29 30 30 30 30 30 29 30 31 29 27 27 31 33 32 31 33 34 35 36 36 34 33 32 33 37 40 41 41 41 40 40 38 37 37 37 36 37 37 33 29 26 24 24 23 23 23 23 25 29 29 26 25 26 27 27 28 29 30 31 31 31 30 28 26 25 25 25 26 26 27 27 29 31 30 28 27 26 21
25 27 27 28 29 28 28 29 30 29 29 29 28 28 30 34 34 29 27 29 32 33 34 34 35 36 36 37 38 37 38 40 42 43 43 42 41 40 40 39 38 36 37 38 34 29 24 21 20 20 21 21 21 22 23 25 26 25 24 24 25 26 27 28 29 30 29 28 27 27 26 25 25 26 27 27 26 26 27 28 27 27 27 25 22
24 26 27 28 29 29 28 28 29 29 28 28 27 26 26 30 35 37 34 31 30 32 33 34 34 35 35 36 37 38 38 39 41 43 43 41 39 38 37 36 35 34 37 36 31 25 24 22 19 18 18 18 18 20 22 22 25 26 24 22 22 25 27 28 29 29 27 25 24 24 24 25 26 26 28 27 25 24 25 25 25 26 25 23 21
24 26 27 28 29 29 27 27 27 28 27 27 27 27 26 24 27 34 40 40 37 35 33 31 30 31 33 34 34 36 38 39 40 41 40 38 37 35 35 35 35 36 36 32 27 24 25 24 22 21 20 19 20 21 22 22 24 26 24 21 20 22 25 25 26 25 24 24 24 23 24 25 26 25 25 26 26 25 25 25 25 24 22 20 20
24 25 26 27 27 27 26 26 27 27 28 28 27 27 27 26 25 27 30 34 38 40 40 39 34 31 32 34 34 34 35 36 37 39 39 38 36 35 34 34 34 34 33 28 25 24 25 24 24 23 22 22 22 22 22 22 23 25 24 22 20 20 21 21 21 21 21 23 24 24 24 26 26 25 24 24 25 24 24 25 25 24 23 21 20
24 25 26 25 25 25 25 25 26 27 27 28 27 26 27 27 27 26 26 25 27 31 37 42 41 36 33 33 34 34 34 33 35 37 38 38 36 34 31 28 27 28 29 27 26 26 26 25 24 24 23 22 22 23 22 21 22 23 22 20 18 17 18 18 19 20 22 23 24 25 26 26 27 27 26 26 25 24 23 25 26 25 24 23 20
23 24 26 25 24 25 26 26 26 27 26 27 27 27 28 27 26 27 27 26 26 27 30 34 38 37 34 32 32 33 33 34 35 36 35 34 33 29 24 21 21 23 25 26 26 26 26 26 25 24 24 22 23 23 22 22 23 23 21 20 18 17 17 19 20 22 24 25 25 25 26 26 27 28 27 26 27 27 26 26 26 25 25 24 22
22 23 25 25 25 26 26 26 26 26 26 26 26 26 27 27 26 26 26 25 26 27 28 31 33 34 33 33 33 33 34 34 35 33 31 29 27 24 20 19 20 21 22 24 25 25 25 27 26 24 23 23 23 23 23 23 24 23 22 22 21 19 18 20 22 23 24 24 23 24 26 26 27 29 27 25 24 24 24 24 24 23 24 24 22
21 22 23 23 24 24 25 25 26 26 26 26 25 25 25 25 25 25 25 25 26 26 27 28 29 28 29 33 35 34 33 32 31 30 29 28 26 23 22 21 20 20 21 23 25 25 25 27 29 26 23 23 23 23 24 26 25 22 22 23 22 20 19 21 22 23 23 23 23 24 26 25 26 28 27 25 23 22 22 23 23 21 21 22 21
22 22 22 22 21 21 22 23 25 26 26 26 25 24 24 24 24 24 24 25 25 25 25 26 26 26 28 31 33 32 30 27 25 25 26 26 25 24 23 22 21 21 22 23 25 26 26 28 30 30 24 21 23 23 23 24 23 21 22 23 22 20 19 19 20 21 21 21 21 22 23 23 23 25 25 24 23 23 23 24 25 24 22 22 22
23 23 23 22 21 20 20 21 23 24 24 24 25 24 23 23 23 23 24 24 24 24 24 24 25 28 29 29 30 30 27 23 22 22 23 23 24 24 24 24 23 23 24 25 26 28 29 29 30 29 23 15 16 20 22 23 22 22 22 22 21 19 19 19 19 19 19 19 20 20 21 22 22 23 23 23 24 25 25 25 25 25 24 23 22
21 22 23 23 22 21 21 21 21 22 23 23 23 23 23 23 23 23 23 23 23 24 25 24 26 28 29 28 29 29 25 21 21 22 21 21 23 24 24 24 24 25 26 27 29 31 31 30 28 27 26 22 13 9 11 15 17 18 18 17 16 16 16 16 17 18 18 18 19 20 21 22 23 23 22 22 22 23 24 23 22 22 22 21 21
20 21 22 23 23 22 22 22 22 23 23 23 22 22 21 22 23 22 22 22 22 23 24 25 27 29 28 28 28 28 24 21 21 22 21 22 23 23 23 24 25 25 26 28 29 30 30 30 28 27 27 26 22 17 12 8 8 9 10 12 11 11 12 13 14 15 16 17 18 19 19 20 21 21 20 21 22 22 22 21 21 21 21 21 22
18 19 21 22 22 21 21 22 23 23 23 23 22 22 21 21 22 22 22 22 22 22 23 24 27 29 29 29 28 27 26 25 24 23 23 23 24 25 25 26 26 26 26 27 28 29 28 28 27 26 24 23 21 19 16 13 9 7 6 6 6 7 9 11 12 14 15 16 16 17 18 18 18 19 19 20 21 22 21 21 21 21 20 21 21
17 18 19 20 20 20 20 21 22 23 22 22 21 21 21 21 21 22 22 21 22 22 22 23 25 27 29 30 30 29 28 28 27 26 26 26 26 27 27 27 27 27 26 26 28 28 28 27 27 25 23 21 19 17 15 12 9 6 3 2 2 3 5 7 9 12 14 16 17 17 18 18 19 20 20 21 22 22 21 21 21 21 21 21 20
15 17 18 19 19 19 19 20 21 21 21 21 21 21 20 20 21 21 21 21 21 22 23 24 25 26 27 28 29 29 28 28 28 27 27 27 27 27 28 28 27 27 27 27 28 28 28 27 27 25 23 21 19 17 14 12 10 8 5 2 2 3 3 5 7 9 12 15 17 18 19 19 19 20 20 21 22 22 21 21 21 21 21 20 20
14 15 16 18 18 18 19 20 20 20 19 19 20 20 20 20 20 20 20 20 21 21 23 24 25 25 26 27 27 28 28 28 28 28 28 28 28 28 28 28 27 27 27 28 29 30 29 28 27 26 24 23 21 19 17 15 13 10 7 5 3 2 3 4 6 8 10 13 16 18 19 19 19 20 21 21 21 21 20 20 21 20 20 19 19
12 14 15 15 16 17 18 18 19 19 18 18 18 18 19 19 19 19 19 20 20 20 22 23 24 25 25 26 26 27 27 27 27 27 27 28 29 29 29 29 29 28 29 30 31 31 32 30 28 27 26 25 24 22 20 18 16 13 11 8 6 4 3 3 5 8 11 13 15 17 18 19 19 19 20 20 20 20 20 19 19 19 19 19 19
11 12 13 14 14 15 16 17 18 18 18 18 18 17 17 18 18 19 19 20 20 20 21 23 24 24 25 25 25 26 26 27 27 28 28 29 29 30 30 30 30 29 29 30 31 32 32 32 31 29 28 26 25 24 23 21 19 17 15 12 9 7 5 5 6 9 11 13 14 16 17 18 18 19 19 19 20 20 20 19 19 19 20 19 19
10 11 12 13 13 14 15 16 16 16 16 17 17 17 17 17 18 18 19 20 20 20 21 22 23 24 25 25 25 26 27 27 28 29 29 30 30 30 30 30 31 30 30 30 31 31 31 30 30 30 29 28 26 25 24 22 21 20 18 15 12 9 8 8 9 10 12 13 15 16 18 19 19 19 19 20 20 20 20 20 20 20 20 19 18
9 10 11 11 12 13 14 14 14 15 15 15 16 17 17 17 17 18 19 19 20 21 21 21 22 23 24 24 25 25 26 27 27 28 28 29 30 30 30 30 30 30 30 30 29 29 29 28 28 28 28 28 27 26 25 23 21 19 17 15 13 12 11 11 11 12 13 15 16 18 20 21 21 21 21 21 21 21 21 20 20 20 20 19 19
9 10 10 10 11 12 13 14 14 14 14 14 15 16 17 17 17 18 18 18 19 20 21 21 21 22 22 23 24 24 25 26 26 27 28 28 28 28 29 29 29 29 29 29 28 28 27 27 27 26 26 26 26 26 25 24 22 20 18 16 15 13 13 12 13 13 14 16 18 20 21 22 23 23 22 22 22 22 21 21 20 20 19 19 19
Wind_Direction
45 47 42 41 34 28 23 16 12 8 6 4 359 356 356 356 355 353 352 351 351 350 349 349 349 348 347 348 348 348 347 346 344 338 331 324 317 310 306 303 300 297 295 291 288 285 282 280 280 278 276 273 269 267 265 263 262 259 256 254 250 248 244 239 243 253 242 238 242 241 234 229 226 223 222 222 224 226 228 230 231 232 231 230 230
41 43 39 38 31 27 23 11 5 2 1 0 354 348 347 347 347 347 346 345 345 344 342 341 340 339 338 337 338 339 340 341 341 338 334 329 324 318 313 308 303 299 297 293 290 289 285 282 281 281 279 274 271 269 266 264 263 260 258 255 252 250 247 242 243 250 246 235 234 236 232 224 222 222 221 221 224 224 223 225 227 230 231 230 230
29 30 28 27 22 18 13 3 358 357 356 355 351 345 341 340 341 340 339 338 337 337 336 335 333 332 331 330 329 330 331 332 333 334 332 330 327 323 318 313 308 302 298 295 292 290 287 284 282 282 281 277 273 270 267 264 262 259 258 256 254 253 250 245 244 246 247 239 232 231 227 221 221 222 222 223 225 222 221 223 225 226 228 229 230
10 12 14 14 12 9 5 359 355 352 350 349 347 344 339 336 336 335 332 331 330 329 328 327 326 325 324 323 323 323 323 324 325 325 326 325 324 322 319 315 310 305 300 297 295 292 288 284 283 283 281 277 274 271 268 266 262 259 258 256 254 254 252 248 246 246 247 243 235 231 228 224 222 222 221 219 220 220 221 221 222 223 225 227 228
355 358 1 3 2 1 359 354 349 346 343 341 340 338 336 333 332 331 328 326 325 324 322 320 318 317 316 316 316 317 318 318 317 317 318 318 318 317 316 312 309 306 303 299 297 294 290 286 284 283 280 275 273 271 268 266 264 260 258 256 254 253 253 250 248 247 246 244 242 235 230 226 224 221 217 214 213 217 219 220 220 220 222 224 226
346 347 349 349 349 349 348 345 341 338 335 333 332 331 330 329 328 327 325 324 322 320 319 318 316 314 313 312 310 311 311 310 309 309 310 310 311 311 310 308 306 303 302 301 298 295 292 290 287 284 279 274 272 270 268 267 265 262 259 257 255 253 251 249 248 247 245 245 245 238 228 225 222 218 217 213 210 210 212 216 219 219 219 221 224
336 336 335 334 334 334 336 335 333 330 328 326 325 324 324 324 323 323 321 320 318 318 317 315 314 313 311 310 308 307 306 304 302 302 302 302 303 304 304 304 302 300 299 299 299 297 293 290 288 285 279 275 272 270 268 266 264 261 260 258 256 252 250 248 246 245 245 246 244 237 229 225 221 220 219 214 212 212 209 206 209 214 217 220 222
322 322 321 321 323 325 328 328 326 323 321 320 319 319 319 319 319 318 317 316 315 314 314 312 311 310 309 307 306 305 302 299 298 297 296 296 295 296 296 297 296 296 295 295 295 295 293 290 287 284 280 276 273 270 267 264 262 260 259 257 255 252 249 247 245 243 243 244 244 237 229 222 218 219 216 208 208 215 212 205 205 209 212 217 220
311 312 313 315 318 320 322 322 320 318 316 316 316 316 316 316 316 315 313 313 312 311 310 309 308 306 305 304 304 302 298 296 295 294 293 293 293 292 290 290 289 288 289 290 291 290 289 288 286 284 282 278 275 272 269 265 261 259 258 255 252 250 248 247 244 242 240 241 243 238 225 217 214 210 205 202 206 212 211 208 212 213 211 214 219
306 308 310 312 314 317 318 318 317 315 313 313 313 313 313 313 312 311 311 310 310 309 308 306 304 303 302 302 301 300 297 295 294 294 291 289 290 290 288 286 283 281 281 282 284 285 284 283 284 284 283 281 278 275 271 267 263 260 258 255 251 248 247 245 243 241 239 239 240 235 222 219 219 211 209 211 211 210 205 205 212 213 208 213 223
308 309 309 311 314 316 318 317 314 312 311 311 311 311 310 310 309 308 308 307 306 306 304 302 301 300 300 299 299 298 296 295 295 295 291 288 287 288 287 285 282 280 278 277 278 279 280 280 281 282 282 281 280 278 275 271 267 263 260 256 253 249 245 244 243 241 240 240 242 237 229 229 227 219 217 218 212 208 207 206 205 203 200 207 221
313 311 311 312 314 316 316 315 313 311 311 311 311 310 309 307 306 305 305 304 304 302 300 298 297 297 296 295 295 295 294 294 294 294 293 290 289 288 287 285 283 281 279 278 277 276 275 276 276 277 277 276 277 277 276 274 271 267 263 259 255 251 247 244 244 242 241 242 244 241 236 237 235 225 219 218 213 211 211 207 205 204 203 207 213
312 310 309 311 313 315 315 314 312 311 311 311 310 309 307 306 305 304 303 302 301 298 297 296 296 295 294 293 292 292 292 292 293 293 294 293 292 291 290 287 284 282 281 279 278 276 275 274 274 273 273 272 271 271 271 272 271 268 265 261 256 253 250 247 245 244 242 242 245 245 242 241 241 233 224 218 213 211 210 210 211 210 209 213 217
310 308 309 311 314 316 315 313 311 310 310 310 309 308 307 306 305 304 303 301 299 298 297 297 296 295 294 293 293 291 290 290 292 293 294 295 295 294 293 290 287 285 282 280 278 276 275 274 273 272 271 270 268 266 265 266 266 265 263 259 256 253 251 248 246 244 243 242 243 247 247 245 246 245 236 223 216 213 211 212 213 213 215 221 223
309 310 310 313 315 316 315 313 311 310 309 309 309 308 307 306 305 304 303 301 299 298 297 296 296 295 294 294 294 292 290 291 292 294 295 295 296 295 294 292 289 287 285 283 281 278 276 275 273 271 270 269 267 265 263 261 260 260 258 256 255 253 251 248 246 244 242 240 241 245 248 247 247 249 248 235 225 221 220 220 220 219 220 225 227
312 313 313 315 317 317 316 313 310 310 310 310 309 308 307 306 305 305 304 300 299 298 296 296 295 294 294 294 294 293 291 292 294 295 295 295 295 294 292 290 289 287 285 284 282 280 278 276 274 272 270 268 267 266 264 260 257 255 254 253 253 252 251 250 249 247 244 242 242 244 247 247 246 246 248 246 237 228 223 222 223 220 218 223 226
317 317 316 318 317 316 314 312 311 312 312 312 310 309 308 306 306 306 305 302 300 299 298 297 295 294 294 294 294 293 292 293 295 297 297 296 295 295 293 291 288 286 284 283 282 281 279 277 275 273 270 268 267 265 263 260 255 252 251 251 251 250 250 252 251 249 247 246 246 247 248 248 247 244 243 245 245 233 219 215 216 214 212 217 224
322 321 319 318 316 314 313 313 312 313 312 312 310 309 309 308 307 307 304 301 299 299 298 297 295 294 294 294 294 294 293 294 297 298 297 296 296 296 294 291 288 284 283 282 282 281 279 277 274 272 270 269 267 265 262 258 254 251 249 249 248 247 249 251 250 248 246 246 246 247 249 248 246 245 241 240 242 234 220 217 217 211 208 216 222
322 320 318 316 314 314 314 314 314 313 312 311 310 309 309 308 307 305 302 299 298 298 298 297 295 295 295 294 295 296 295 296 299 300 298 297 297 296 294 290 286 284 283 283 282 281 279 278 275 273 271 270 269 266 262 257 253 251 248 247 245 245 247 249 247 244 242 242 243 243 245 246 244 244 241 238 237 233 227 226 221 211 210 218 219
319 318 317 316 315 315 316 315 314 313 311 310 310 309 309 307 307 305 303 301 299 299 298 296 295 295 296 296 296 297 296 298 300 300 300 299 299 297 294 291 288 288 288 286 283 281 278 277 275 274 272 270 269 267 264 259 254 250 247 244 241 243 247 247 246 243 240 240 241 241 242 244 242 241 240 238 236 233 230 229 224 217 216 219 217
320 320 319 318 316 316 316 316 315 314 313 311 310 309 308 307 306 305 304 302 301 299 298 297 296 296 297 297 297 297 297 298 299 300 300 300 299 298 294 290 289 289 288 285 281 279 277 275 274 274 273 272 270 268 266 261 256 251 246 243 242 245 247 246 245 243 240 240 241 241 241 242 240 238 237 236 235 233 230 228 225 222 221 221 218
324 323 320 318 317 317 318 318 317 316 314 313 311 309 309 308 306 305 303 301 300 298 298 298 296 296 298 298 297 297 297 297 298 299 299 298 298 297 293 290 289 288 287 284 282 282 281 280 278 277 275 273 270 269 267 264 260 254 248 245 245 246 246 246 245 242 238 237 238 238 238 238 236 235 234 233 233 232 230 229 227 224 225 225 223
326 323 320 318 318 319 320 320 319 317 316 316 313 310 309 307 306 305 302 300 299 298 299 299 297 297 299 299 299 299 299 298 297 297 297 297 297 296 294 292 291 290 287 286 286 287 286 285 284 282 280 277 272 269 266 264 261 257 252 248 245 245 245 244 242 238 234 233 233 232 233 233 232 232 233 232 232 231 229 228 227 226 226 228 228
326 322 319 319 319 321 321 320 319 319 319 317 313 308 307 306 306 305 303 301 299 298 298 300 299 299 299 300 300 299 298 297 295 294 294 294 295 294 293 292 291 290 287 285 285 286 286 285 285 283 281 279 277 273 268 264 261 258 254 250 247 245 243 241 237 233 230 228 227 227 230 230 230 231 233 232 232 231 230 229 229 228 228 229 229
324 320 319 319 320 320 319 319 320 321 319 315 310 306 305 305 305 304 303 302 300 298 298 300 299 298 297 296 296 296 295 294 293 291 290 290 290 291 290 289 288 287 285 283 282 283 284 285 284 282 279 279 280 278 271 265 261 258 254 251 248 245 242 238 234 230 226 225 224 225 228 230 230 233 235 234 232 231 229 228 228 227 226 227 227
322 319 319 319 320 320 319 319 320 319 316 312 308 304 304 303 303 303 302 301 299 298 297 298 297 295 293 292 292 293 294 294 292 290 289 286 284 284 284 284 284 284 283 281 281 281 283 284 284 283 282 282 284 284 278 267 259 256 253 249 246 244 240 236 232 227 225 225 224 224 228 231 231 233 235 233 229 227 224 221 220 220 219 218 218
320 318 319 319 319 320 319 319 319 317 313 311 308 305 304 303 302 301 300 300 299 297 296 295 293 290 288 289 291 293 293 294 294 293 290 286 282 280 278 278 278 279 279 279 279 279 279 279 281 282 283 284 284 288 288 277 260 250 248 245 242 241 240 236 233 229 227 226 225 226 229 231 230 229 228 226 224 224 220 215 211 210 209 208 206
319 317 318 319 319 319 318 318 317 314 311 310 308 306 305 304 302 301 300 299 296 294 293 291 290 290 291 292 294 294 292 294 296 296 293 289 286 283 279 276 273 270 270 272 273 274 275 275 277 278 280 283 284 287 293 287 265 246 241 238 236 238 240 237 234 231 228 227 227 226 226 224 222 221 220 219 219 220 215 210 208 205 200 196 194
319 318 319 319 318 318 318 318 316 311 308 308 306 305 305 303 300 300 301 299 295 293 294 294 294 295 296 296 298 298 295 296 298 299 298 297 297 295 291 287 283 277 273 273 274 276 277 277 278 280 281 285 287 287 291 290 276 253 241 234 229 230 234 234 232 230 228 226 224 222 220 216 215 214 213 212 214 214 210 206 205 201 194 193 194
318 318 319 319 318 318 319 318 315 311 308 307 306 307 308 307 302 297 298 300 299 297 297 297 299 300 300 299 299 299 299 301 302 303 303 304 304 301 298 296 295 292 289 287 285 285 284 280 278 280 280 280 283 284 288 291 285 270 254 244 235 229 229 231 231 230 228 225 223 221 217 211 208 206 205 206 209 208 204 203 202 196 191 193 194
317 316 318 318 317 318 318 317 314 310 308 307 307 308 311 314 313 308 301 301 303 303 302 301 302 303 303 302 302 301 301 303 304 305 307 307 306 304 302 301 299 296 294 293 289 284 280 275 271 272 272 271 276 281 286 292 291 278 260 251 247 240 233 230 230 230 228 226 223 219 215 209 205 203 203 203 203 199 196 197 197 194 194 196 192
315 314 315 315 315 316 317 315 312 309 308 309 309 310 311 314 316 317 315 311 306 305 305 305 306 307 306 305 305 305 305 305 305 307 310 310 309 307 306 304 301 298 297 296 292 283 275 271 266 263 264 264 268 274 279 287 293 285 264 248 246 246 239 232 228 227 226 225 222 217 212 208 205 203 202 200 195 190 187 188 190 191 194 196 192
315 313 314 314 314 315 316 315 312 309 308 309 310 312 312 309 309 313 317 318 316 312 309 308 308 309 310 309 309 309 309 309 310 311 312 313 312 309 308 306 304 303 301 298 293 284 276 270 263 258 258 259 261 267 271 276 285 286 270 249 243 245 239 231 227 225 224 225 223 217 211 208 205 202 199 194 189 185 183 184 187 188 190 191 189
315 314 315 314 312 313 315 314 311 308 307 307 308 309 310 308 305 306 310 315 319 319 318 318 317 316 315 314 314 315 314 314 313 312 312 313 312 310 311 310 308 306 304 299 291 283 278 272 265 259 256 256 257 261 264 266 276 282 271 251 244 247 239 228 225 225 224 225 224 217 210 207 202 195 190 188 186 185 184 184 184 185 188 190 187
318 317 318 316 312 312 314 313 309 306 305 307 308 309 309 308 308 307 306 308 310 311 313 317 319 320 319 318 318 319 318 317 315 314 313 314 315 315 317 315 309 307 306 301 294 288 283 276 268 260 256 254 253 254 257 260 269 276 267 244 237 244 240 230 228 229 227 226 223 216 209 203 198 192 188 184 183 184 185 186 187 187 188 188 184
320 320 320 317 314 315 316 314 310 307 305 306 309 310 310 309 308 309 308 307 306 305 306 311 315 318 320 321 321 322 322 321 320 318 318 319 321 322 320 312 304 304 303 301 299 298 295 290 279 264 254 251 250 251 253 255 262 268 259 238 231 238 241 235 231 229 225 222 218 210 203 198 194 191 188 186 186 188 188 188 188 188 187 185 182
321 321 321 318 317 318 318 316 312 309 308 309 311 312 312 312 312 312 311 311 311 310 310 313 317 320 323 326 328 327 326 325 325 324 325 329 331 331 325 316 310 309 307 306 307 307 305 304 297 278 257 247 246 247 248 251 257 260 252 239 233 235 237 235 230 224 218 214 210 203 198 195 193 191 188 187 189 189 188 186 185 185 185 183 179
322 321 321 318 317 318 318 316 314 312 312 313 315 315 314 315 316 317 316 315 315 314 314 316 319 321 323 327 330 330 329 330 331 332 333 336 338 337 333 327 324 322 317 315 316 313 309 309 310 299 274 251 243 244 245 247 250 252 248 241 237 235 235 233 229 222 216 210 205 200 198 196 193 191 189 187 186 184 182 181 179 178 178 179 178
323 323 323 321 318 318 318 316 314 314 315 317 319 319 318 319 320 321 320 319 318 317 318 319 321 323 325 327 329 331 332 334 335 334 332 332 334 335 332 329 327 325 323 322 323 323 318 315 316 314 297 263 245 245 248 250 253 252 246 241 237 235 233 230 226 220 213 207 202 198 196 194 191 190 188 186 183 180 178 178 178 177 176 178 179
325 326 327 326 321 319 319 317 315 315 316 318 320 321 321 322 323 323 323 322 320 321 322 322 324 327 329 329 331 334 336 335 332 330 329 329 330 331 332 330 328 327 326 326 326 328 327 322 320 326 329 306 261 249 250 254 256 253 245 240 236 234 231 227 222 216 209 203 198 193 190 189 186 184 184 184 182 180 178 177 179 179 177 177 176
327 328 328 327 323 322 324 322 319 319 319 319 320 322 323 325 326 326 325 325 324 325 327 327 329 332 333 335 339 342 342 336 330 329 330 330 330 330 331 332 331 329 329 329 329 331 334 334 333 341 357 5 354 306 270 258 255 252 247 243 241 236 229 222 217 210 202 196 191 187 185 185 182 179 179 179 178 177 176 174 174 174 173 171 168
330 329 328 326 325 326 328 326 325 324 324 323 324 325 326 327 328 328 328 328 329 330 330 331 334 337 339 341 345 349 349 344 338 336 335 334 334 334 333 333 335 334 333 336 340 342 345 348 350 354 5 13 14 8 357 333 298 276 261 250 242 231 219 209 203 198 192 187 183 181 178 178 176 174 173 171 169 168 168 167 166 166 164 163 163
329 329 328 326 326 328 330 330 328 327 326 326 326 328 330 331 332 332 332 332 333 334 334 335 338 341 343 346 349 352 352 351 348 345 342 340 340 339 338 338 340 341 341 346 356 2 3 4 5 8 12 17 18 15 10 2 344 317 286 259 239 219 205 195 189 186 182 176 172 171 168 166 165 164 162 162 162 161 160 160 160 160 159 160 160
329 330 329 327 328 332 334 334 331 328 327 327 328 331 335 336 336 336 337 336 336 338 339 340 342 344 346 349 352 354 353 353 352 350 349 347 345 344 344 345 347 350 351 355 3 11 15 16 15 17 19 22 23 21 19 14 5 354 334 270 210 185 179 175 173 176 174 168 162 160 159 157 157 157 156 157 158 156 155 156 156 155 156 156 157
330 331 330 329 331 334 337 338 334 330 330 330 332 336 340 340 340 342 342 340 340 342 344 346 347 348 349 352 354 354 353 354 354 355 355 355 353 352 353 354 356 360 2 4 8 15 19 20 21 22 23 25 27 28 31 32 30 28 27 37 107 123 139 160 167 170 170 165 158 154 153 153 154 154 153 155 156 155 154 155 155 154 155 156 157
330 332 331 330 332 336 338 338 335 332 332 333 335 337 341 343 345 346 345 344 345 347 348 350 351 353 354 355 356 356 356 355 356 357 359 0 1 1 2 4 6 10 13 15 18 21 23 23 24 26 27 29 30 32 34 37 39 42 45 51 74 110 137 163 169 168 166 163 158 154 151 150 150 151 151 152 152 152 151 152 153 153 153 153 153
330 333 332 332 336 339 340 338 336 335 335 337 338 339 341 344 348 349 349 351 352 353 353 354 355 355 356 357 358 359 359 359 359 360 1 3 6 7 8 10 12 15 18 21 24 26 26 26 28 30 31 33 34 35 37 38 40 44 47 51 58 75 102 139 155 158 159 158 156 153 150 145 144 145 147 146 146 145 144 145 146 147 146 146 145
330 333 335 337 342 344 343 340 338 337 339 341 343 343 344 347 350 352 353 355 357 357 357 357 358 358 358 359 359 0 2 3 4 5 6 7 9 10 12 14 15 17 19 23 27 29 29 29 30 32 35 37 39 40 43 44 46 47 48 50 54 63 80 113 136 144 149 150 149 146 143 138 136 137 138 137 137 137 136 136 137 138 139 139 139
330 333 335 340 347 349 345 340 337 337 340 343 343 345 348 352 354 355 356 357 359 0 359 359 0 1 1 1 1 2 4 6 7 9 10 11 12 14 15 17 19 20 22 25 29 32 33 33 32 33 36 40 42 45 47 48 51 53 55 56 60 67 80 100 118 130 139 142 141 138 135 131 127 127 128 129 129 130 129 129 131 132 132 132 132
328 331 335 342 349 349 345 341 339 340 344 346 346 347 351 354 355 356 357 357 359 1 1 1 3 4 3 3 3 3 4 5 6 8 11 13 15 17 18 19 21 23 25 27 31 34 37 38 37 35 36 38 41 45 47 49 52 56 59 62 68 77 88 99 109 119 126 130 131 131 130 127 124 123 124 125 125 125 125 126 127 128 127 125 126
323 329 334 341 347 347 344 342 342 344 347 349 349 349 351 352 353 355 356 357 357 358 358 360 2 4 5 6 6 5 6 7 7 9 11 13 14 17 19 20 22 24 26 29 32 35 38 40 41 41 40 40 40 42 45 47 50 53 56 61 67 76 85 95 105 114 121 126 127 128 127 125 123 122 123 124 124 124 124 125 127 128 126 123 124
Height
834 834 834 833 833 833 832 831 829 828 826 825 824 823 821 819 816 814 812 810 808 806 805 804 803 802 801 800 799 798 796 794 792 790 788 787 785 784 782 781 780 779 778 777 776 776 774 773 772 771 771 770 768 768 768 768 770 770 770 771 771 771 772 772 768 764 765 767 767 767 768 769 769 769 772 774 775 777 779 781 783 785 787 789 791
835 835 834 834 833 832 831 830 828 827 826 825 824 822 820 818 816 814 812 810 809 807 806 804 803 801 800 799 798 796 795 793 791 789 788 786 784 783 781 780 778 776 776 775 774 773 771 770 768 768 769 767 765 765 764 764 765 764 765 766 766 766 768 768 766 763 762 763 764 764 764 765 764 765 767 768 769 771 773 775 777 779 781 783 785
835 835 834 832 831 830 829 828 827 826 824 823 822 820 818 816 814 812 810 809 807 807 806 805 803 801 800 798 796 794 792 790 789 788 786 784 782 781 780 778 776 774 773 772 771 771 769 767 765 765 766 764 762 761 761 760 761 760 759 761 761 762 763 765 763 761 759 760 760 760 760 760 760 761 762 763 765 766 767 769 771 773 775 777 780
834 833 832 831 829 828 827 826 825 823 822 821 819 817 816 814 812 810 809 807 806 805 804 803 802 801 800 798 796 794 791 788 786 785 784 783 781 779 777 776 774 773 771 769 769 768 766 764 762 762 762 760 758 758 758 757 757 756 755 755 756 757 759 760 760 758 757 757 756 756 756 756 756 757 758 760 762 763 763 764 766 768 770 772 774
833 831 830 829 827 826 825 824 823 822 820 819 817 816 814 813 811 809 807 806 804 803 802 801 800 799 798 797 795 792 790 787 785 782 781 780 778 777 775 774 772 770 769 767 766 765 763 761 759 759 759 757 755 754 754 753 753 752 751 751 752 753 755 756 755 755 754 753 752 753 753 753 753 754 755 756 758 760 762 762 763 764 766 768 770
831 829 828 826 825 824 823 822 821 820 819 817 815 814 812 811 809 807 806 804 802 801 800 799 798 796 794 792 790 788 786 785 783 781 780 778 776 774 772 771 769 768 766 764 763 762 760 758 756 756 755 753 751 750 750 749 749 749 748 747 748 749 750 750 751 751 750 748 748 750 750 750 750 751 751 752 753 755 757 759 760 762 763 765 765
829 828 827 825 824 823 822 821 820 819 817 815 814 812 810 809 807 805 804 802 800 799 797 796 794 792 790 788 786 785 783 781 780 779 778 776 774 772 769 767 765 763 762 760 759 758 756 755 754 753 752 750 748 746 746 745 745 744 744 744 745 746 745 745 746 746 745 744 744 744 744 745 747 747 748 750 751 751 751 753 755 757 759 759 760
827 827 826 824 824 823 822 821 819 817 815 813 812 810 808 807 805 803 802 800 798 796 794 792 790 788 786 784 782 781 779 778 776 775 774 773 771 769 767 765 762 759 757 755 754 753 752 751 750 749 748 746 745 743 743 742 741 740 740 741 742 742 741 741 741 742 741 740 739 739 740 741 742 744 745 747 748 746 746 748 749 749 751 752 754
826 825 824 823 823 821 820 819 817 816 814 811 810 808 806 804 802 800 799 797 795 793 791 789 787 784 782 780 779 777 776 773 772 771 770 769 767 765 763 761 758 756 753 751 750 749 748 747 746 745 744 742 741 740 739 739 738 737 736 737 738 737 737 736 737 737 736 735 734 735 736 736 735 737 739 738 737 738 742 746 746 745 747 749 750
824 824 823 822 821 820 818 817 815 814 812 810 808 806 804 802 799 797 795 793 792 790 787 785 783 780 778 776 774 772 770 768 767 766 766 765 763 761 759 757 754 752 750 748 745 744 743 742 741 740 739 738 736 735 735 734 734 733 732 733 733 732 732 732 732 732 732 731 729 730 731 730 729 729 729 729 730 734 738 740 742 745 749 749 748
823 823 821 820 819 818 817 815 813 812 810 808 806 804 802 799 797 795 792 790 788 786 784 781 779 777 774 772 769 767 764 763 761 761 761 760 759 757 755 753 751 749 747 744 741 739 737 736 735 734 733 731 730 729 729 729 728 728 728 728 728 727 727 727 727 727 727 726 724 725 725 722 722 723 724 725 728 731 732 734 737 741 744 743 741
822 821 819 819 817 816 815 813 811 810 808 807 804 802 800 797 795 792 789 787 785 782 780 777 775 773 771 768 766 763 760 757 756 755 755 754 754 753 751 749 746 744 742 740 737 735 732 731 729 728 726 725 724 724 723 723 722 722 722 722 722 722 722 721 721 722 722 721 719 719 718 716 716 718 720 722 725 727 728 731 732 732 733 733 733
820 819 817 817 815 814 813 811 809 808 806 804 802 800 798 795 793 791 787 785 782 778 776 773 771 769 767 765 762 759 756 753 751 751 751 750 749 748 747 745 742 739 737 735 732 730 727 726 724 722 720 719 719 719 718 717 717 716 717 716 716 716 716 716 715 716 716 716 715 712 711 712 712 712 714 717 720 723 725 725 725 725 727 726 724
817 816 815 815 814 813 811 809 807 805 803 802 799 797 795 793 790 788 785 782 779 775 773 770 767 765 763 761 758 754 751 749 748 748 747 746 745 744 742 740 737 734 731 729 727 725 723 721 719 716 715 714 713 713 712 712 712 711 711 710 710 709 709 709 710 709 710 710 709 706 705 707 708 709 711 712 713 715 716 718 719 721 722 720 721
815 814 813 812 812 810 809 807 805 803 801 799 796 794 792 790 787 785 782 779 776 773 770 767 764 761 759 757 754 750 746 745 745 745 744 743 742 740 738 735 732 729 727 725 723 720 718 717 714 712 710 708 708 707 707 707 707 706 705 705 704 703 703 703 703 702 702 703 702 700 699 702 705 706 708 708 707 708 710 712 715 717 718 719 720
813 812 811 810 809 808 806 804 802 800 798 796 793 791 789 786 784 782 779 775 772 770 767 764 761 757 755 754 751 746 741 740 741 742 741 740 738 736 733 730 727 724 721 719 717 716 714 713 710 707 705 703 702 702 702 702 702 701 700 699 698 697 696 695 695 696 696 696 696 694 693 695 699 702 704 705 704 705 708 710 712 714 716 716 716
811 810 809 808 806 805 803 801 798 796 794 792 790 787 786 783 780 779 775 771 768 766 763 760 757 754 752 750 748 743 737 736 738 738 736 735 734 732 729 725 722 719 715 713 711 710 709 708 706 703 700 697 696 696 697 697 696 695 694 693 692 691 689 689 689 689 690 691 690 689 688 690 693 696 699 700 700 702 705 705 705 707 710 710 709
809 808 807 805 804 802 801 798 796 793 790 788 786 783 781 779 776 774 772 767 764 761 759 755 752 750 749 746 745 742 735 732 735 734 731 730 730 728 725 721 717 713 710 707 706 704 702 701 700 698 694 691 691 690 691 692 691 689 688 687 686 684 683 682 682 683 684 685 684 683 683 684 687 689 691 693 695 697 697 696 696 701 704 703 701
806 805 804 803 801 799 798 795 793 790 787 785 783 780 777 774 772 770 767 764 760 757 755 752 747 745 746 743 741 740 733 729 731 731 727 726 726 724 721 716 711 708 705 702 700 697 695 693 692 692 689 687 686 685 685 686 685 683 682 681 678 676 675 675 676 677 678 678 677 677 677 678 680 682 684 686 689 690 689 688 691 695 695 694 696
804 803 801 800 798 796 795 792 790 788 785 781 779 777 774 770 768 765 762 759 756 752 750 747 743 741 742 740 737 736 732 726 727 727 723 721 721 720 716 712 707 703 701 698 694 690 687 685 683 684 683 682 680 679 678 678 677 676 674 673 670 667 667 668 669 670 671 671 670 671 671 672 674 676 677 679 681 682 682 683 686 688 688 688 691
801 800 798 796 795 793 792 790 787 785 782 779 776 773 771 768 764 761 758 754 751 748 745 743 739 736 736 735 733 732 729 725 723 722 720 718 717 715 712 708 705 701 696 692 688 683 679 677 675 675 676 675 673 672 670 670 670 668 665 663 661 660 661 661 663 665 666 665 665 666 666 667 669 670 671 672 673 675 676 677 679 681 682 683 685
798 796 794 793 792 790 788 786 784 781 779 776 773 770 767 765 761 758 755 751 747 744 741 738 735 732 731 731 729 727 725 723 720 718 716 714 712 711 707 704 702 699 692 685 681 677 674 671 669 668 669 668 666 665 663 662 662 660 657 655 654 654 655 656 657 659 660 660 661 661 661 662 663 664 665 665 666 668 669 670 672 675 676 677 679
794 793 791 789 788 786 784 782 781 778 775 773 770 767 763 761 758 755 752 748 744 741 737 734 731 728 726 725 724 722 720 718 716 714 711 709 707 705 703 699 697 694 688 681 676 674 670 667 664 662 662 660 658 657 655 654 653 651 649 649 648 648 649 650 652 653 654 654 655 655 655 656 657 658 658 659 659 661 663 664 666 669 671 672 674
791 790 788 786 784 783 781 779 777 775 772 770 768 764 760 758 755 751 748 745 742 737 734 731 728 725 722 720 719 718 715 713 711 709 707 704 702 700 697 694 691 689 684 677 673 670 667 663 659 658 656 654 651 649 647 646 645 644 642 642 642 642 643 643 644 646 646 647 648 648 648 649 650 650 651 652 654 656 658 660 662 664 666 668 670
788 786 785 783 781 779 777 776 774 772 770 768 765 761 757 755 752 748 745 742 739 735 731 728 725 722 719 716 713 712 710 707 705 703 700 698 695 693 691 688 685 682 678 673 668 665 662 658 654 652 650 648 645 642 639 637 636 636 635 635 635 635 635 635 636 638 638 639 640 641 641 641 642 643 644 647 650 653 655 656 658 659 661 664 666
785 784 782 780 778 777 774 772 770 769 767 765 762 758 755 752 749 745 742 739 736 732 728 725 722 719 714 711 708 705 703 701 697 695 693 690 687 685 683 681 678 675 671 666 662 659 655 652 649 646 644 642 639 635 631 628 627 627 627 627 627 627 627 628 629 629 630 630 632 633 633 634 636 638 641 644 647 648 649 651 652 654 656 658 661
783 781 779 777 775 774 771 768 767 765 763 761 758 755 752 750 746 742 739 736 733 729 726 722 718 714 709 705 701 698 696 694 690 688 685 682 678 675 674 672 670 668 664 660 655 651 648 646 643 641 638 636 633 629 624 620 617 617 617 618 618 618 619 620 621 621 622 623 624 626 627 629 632 635 637 639 641 643 645 646 648 649 651 654 657
781 778 776 774 772 771 769 766 764 762 760 757 755 751 748 746 743 739 736 733 730 726 722 719 714 710 705 700 695 692 690 688 685 682 679 675 671 668 666 664 661 659 656 652 647 643 640 638 636 634 632 629 626 623 619 613 609 608 608 609 610 611 613 614 614 615 615 617 619 621 623 625 627 629 631 634 636 638 640 642 644 645 647 650 653
778 776 773 771 770 768 766 764 761 759 756 754 752 748 745 742 740 736 732 730 728 724 719 715 711 707 703 698 693 688 683 681 680 677 673 669 666 663 660 657 654 651 648 644 640 637 634 632 630 628 626 624 621 618 614 609 603 600 600 601 602 604 606 607 608 609 610 612 613 615 617 620 622 624 626 629 631 633 635 638 640 642 644 646 648
775 773 771 769 767 765 763 760 759 757 754 750 748 744 740 738 737 734 730 726 724 722 718 713 708 704 700 696 693 688 681 676 674 671 667 664 661 658 655 652 649 645 642 639 636 632 629 627 624 623 621 619 616 613 610 606 601 597 596 596 597 598 600 601 603 604 605 607 608 609 612 614 616 619 621 623 626 628 631 634 636 639 641 642 644
773 770 768 766 765 763 761 758 756 754 751 748 745 741 736 732 729 728 727 724 719 716 713 709 706 702 698 693 689 685 680 674 670 666 662 659 656 653 649 646 643 640 636 634 631 628 624 621 618 617 615 613 611 609 607 604 600 596 593 593 593 594 595 596 598 600 601 602 604 605 607 609 611 614 616 618 621 624 626 630 633 635 637 639 641
771 768 766 765 762 761 758 756 754 752 749 746 743 739 736 730 723 719 719 719 716 712 709 705 702 699 695 690 685 681 676 672 667 662 658 655 651 648 644 640 638 635 632 629 625 622 618 615 612 610 609 607 606 605 603 601 598 594 591 589 589 590 590 591 593 595 597 598 600 601 603 605 607 609 611 614 617 620 622 626 629 632 634 637 639
769 766 764 763 760 758 756 754 752 750 746 744 740 737 734 731 725 718 712 709 707 705 703 701 699 695 691 687 683 678 673 668 663 659 655 651 647 643 640 636 633 630 628 625 621 616 612 609 605 603 602 601 600 599 598 597 595 592 589 586 585 586 586 587 589 590 592 594 596 598 599 601 603 606 608 610 612 615 618 621 625 628 632 634 636
766 764 763 761 759 756 754 752 750 748 745 742 739 735 732 729 726 722 715 708 703 697 693 692 692 691 688 683 679 675 670 665 661 656 652 648 644 640 636 633 629 626 623 621 617 612 607 603 599 597 596 595 595 594 593 592 591 589 586 583 583 583 583 584 585 587 589 591 593 594 596 598 600 602 605 607 609 612 615 618 621 624 627 630 633
763 761 760 759 757 754 752 750 748 746 743 740 736 733 731 727 724 721 717 712 707 700 694 688 686 685 684 680 676 672 668 663 658 653 649 644 640 637 633 630 626 622 619 617 613 608 603 597 593 591 590 589 590 589 588 587 586 585 582 581 580 580 581 581 582 584 586 588 589 590 591 594 596 598 600 603 606 608 611 614 616 619 622 626 629
760 758 757 756 755 752 749 747 746 743 741 738 735 731 728 726 722 719 715 712 708 703 697 691 686 682 680 677 674 669 665 660 655 651 646 642 638 635 632 629 626 622 617 613 609 604 599 594 589 585 584 584 584 584 584 583 582 580 579 578 577 577 578 579 580 581 583 584 585 586 587 589 591 594 597 599 601 603 606 609 612 615 619 623 626
758 756 754 753 752 749 747 745 743 741 739 736 733 730 726 723 720 717 713 709 706 701 696 691 686 681 676 673 670 666 661 657 652 648 644 641 638 635 633 629 625 621 617 612 608 603 597 592 586 581 579 579 579 579 579 579 577 576 576 575 575 574 575 576 577 578 579 580 581 582 583 585 587 590 593 596 598 601 604 607 610 614 617 621 624
756 754 753 752 750 747 745 742 740 739 736 734 731 728 725 722 718 715 711 707 704 700 695 690 686 682 676 671 668 664 659 654 650 645 641 639 637 635 633 629 626 622 618 613 609 604 598 591 585 579 575 573 574 575 575 574 573 572 573 573 573 572 573 573 574 575 576 577 578 579 581 583 585 587 590 593 596 599 602 605 609 613 617 620 623
753 752 751 750 749 746 744 742 739 737 734 731 729 726 723 720 717 713 710 706 702 698 694 690 686 682 678 673 668 663 658 654 651 647 643 640 638 636 633 630 626 622 618 614 609 604 598 592 585 578 573 570 570 571 572 572 571 570 570 570 570 570 571 571 572 573 574 575 576 577 579 581 583 586 589 591 594 597 600 604 607 610 613 617 620
751 749 748 747 747 745 743 740 738 736 733 730 727 725 722 719 716 713 709 706 702 698 694 690 686 682 678 674 670 665 660 657 654 651 647 643 639 636 634 630 626 622 618 613 609 604 598 592 586 580 574 569 568 569 569 570 570 569 569 569 568 568 568 569 570 571 572 573 575 576 578 580 582 585 588 590 593 595 598 601 604 608 611 614 618
749 747 745 745 744 742 740 738 736 734 732 730 727 724 721 718 715 712 709 705 701 697 694 690 686 682 678 675 671 667 664 660 656 653 649 645 642 638 634 631 627 623 619 614 609 605 599 594 589 583 577 572 570 569 569 568 568 568 568 568 568 567 568 568 569 570 571 573 574 576 578 579 581 584 587 589 592 595 598 601 604 607 611 615 618
747 745 743 743 742 739 737 735 734 732 730 728 726 723 721 717 714 712 708 705 702 698 694 690 686 682 678 675 671 668 664 661 657 654 650 646 643 639 636 632 628 624 620 616 611 606 601 595 591 586 580 576 573 571 570 569 569 569 569 568 568 568 568 568 569 570 571 572 574 576 578 580 582 585 587 589 592 595 598 601 605 608 611 615 618
746 744 742 741 740 738 736 734 732 730 729 726 724 722 719 716 714 711 708 704 701 698 694 690 686 682 678 675 671 667 664 661 657 654 650 647 643 640 636 632 628 625 621 617 612 607 602 598 593 589 585 581 578 576 574 573 572 571 571 570 570 569 569 569 570 571 572 573 575 577 579 581 584 586 588 591 593 596 599 602 605 608 611 615 618
744 742 741 740 738 736 734 732 731 729 727 725 723 721 718 716 713 710 707 704 701 698 695 691 687 683 678 674 671 667 664 661 658 654 651 647 644 640 637 633 629 625 621 617 613 608 604 600 596 592 588 585 582 580 578 577 575 574 573 572 572 572 572 572 573 573 573 575 576 578 581 583 585 587 590 592 594 597 600 602 605 608 611 615 618
742 741 740 738 737 735 732 731 730 728 726 724 722 719 717 715 713 710 707 704 701 698 695 691 688 684 680 676 672 669 666 663 660 656 652 649 645 642 638 634 630 626 622 618 614 610 606 602 599 595 591 589 586 584 582 580 578 576 575 575 575 575 575 576 576 576 577 578 579 581 583 585 587 589 591 593 595 598 600 603 606 609 612 615 618
741 740 739 737 735 733 731 730 729 728 726 724 721 718 716 714 712 709 707 704 701 698 695 692 688 685 682 678 675 672 669 665 662 658 655 651 647 644 640 636 632 628 624 620 616 612 609 605 602 599 596 593 590 588 585 583 581 579 578 578 578 578 578 579 579 580 581 581 582 584 585 587 589 591 593 595 597 600 602 605 607 610 613 616 619
740 739 738 736 734 732 730 729 728 727 725 723 720 718 716 714 711 709 707 704 701 698 695 692 690 686 683 680 677 674 671 668 664 661 657 653 650 646 642 638 635 631 627 623 619 615 612 609 606 603 600 597 594 591 589 587 585 584 582 582 581 581 581 582 582 583 584 585 586 587 588 590 592 594 595 597 600 602 604 607 610 612 615 618 620
738 737 736 735 733 731 729 728 727 726 724 722 720 718 715 713 711 708 706 703 701 698 696 693 690 687 685 682 679 676 673 669 666 663 659 655 652 648 645 641 637 634 630 626 622 618 615 613 610 607 604 601 598 596 594 592 590 588 587 586 586 585 585 585 585 586 587 588 589 590 592 593 595 597 599 601 603 605 607 610 612 615 617 620 623
737 736 735 733 731 730 729 728 727 725 723 721 719 717 715 712 710 708 706 703 701 698 696 694 691 688 686 683 680 677 674 671 667 664 661 657 654 651 647 644 640 637 633 629 626 622 620 617 615 612 609 606 604 601 599 597 595 593 592 591 590 589 589 589 589 590 590 591 592 594 595 597 599 601 603 604 606 608 611 613 615 618 620 623 625
735 734 733 731 730 729 728 727 726 724 723 721 718 716 714 711 709 707 705 703 700 698 696 694 692 689 687 684 681 678 675 672 669 666 663 660 656 653 650 646 643 640 636 633 630 627 624 622 619 617 614 612 610 607 605 602 601 599 597 596 595 594 594 594 594 594 594 595 596 597 599 600 602 604 606 608 610 612 614 616 619 621 623 625 628
733 733 732 730 729 728 727 726 725 723 721 720 717 715 713 711 709 707 705 703 700 698 696 694 692 690 687 685 682 680 677 674 671 668 665 662 658 655 652 649 646 643 640 637 634 631 629 626 623 621 619 617 615 613 610 608 607 605 603 602 600 599 599 598 598 599 599 599 600 602 603 604 606 608 610 611 613 615 617 620 622 624 626 628 630